Tracking 27380 objects as of 6-Jun-2023
HD Live streaming from Space Station
objects crossing your sky now

CZ-4 DEB

Track CZ-4 DEB now!
10-day predictions


NORAD ID: 20855
Int'l Code: 1990-081T
Perigee: 852.8 km
Apogee: 888.4 km
Inclination: 98.7 °
Period: 102.2 minutes
Semi major axis: 7241 km
RCS: 7.4909 m2 (large)
Launch date: September 3, 1990
Source: People's Republic of China (PRC)
Launch site: Taiyaun Space Center, China (TSC)

Note: This is SATELLITE DEBRIS
Your satellite tracking list
Your tracking list is empty




NASA's NSSDC Master Catalog

Two Line Element Set (TLE):
1 20855U 90081T   23156.59665135  .00000038  00000-0  46234-4 0  9999
2 20855  98.7233 151.2294 0024561  26.4337  81.3340 14.08803209683338
Source of the keplerian elements: AFSPC